EA3CTN-13 Weather Reports


time (UTC)temp
F
wind
direction
speed
knots
gust
knots
rain 1hr
in
rain 24hr
in
rain mn
in
humidity
%
barometer
mb
20260504175718 70 0.0 0.0 0.00 0.00 0.00 60 1011.1
20260504174918 70 0.0 0.0 0.00 0.00 0.00 60 1011.2
20260504174118 70 0.0 0.0 0.00 0.00 0.00 60 1011.3
20260504173318 71 0.0 0.0 0.00 0.00 0.00 58 1011.3
20260504172518 71 0.0 0.0 0.00 0.00 0.00 58 1011.2
20260504171718 71 0.0 0.0 0.00 0.00 0.00 57 1011.1
20260504170918 71 0.0 0.0 0.00 0.00 0.00 59 1011.2
20260504170118 70 0.0 0.0 0.00 0.00 0.00 59 1011.4
20260504150918 69 0.0 0.0 0.00 0.00 0.00 61 1011.8
20260504150118 69 0.0 0.0 0.00 0.00 0.00 61 1011.8
20260504141318 69 0.0 0.0 0.00 0.00 0.00 61 1012.1
20260504140518 70 0.0 0.0 0.00 0.00 0.00 60 1012.3
20260504130118 71 0.0 0.0 0.00 0.00 0.00 58 1012.3
20260504110118 71 0.0 0.0 0.00 0.00 0.00 55 1012.6
20260504100518 71 0.0 0.0 0.00 0.00 0.00 56 1012.9
20260504090118 70 0.0 0.0 0.00 0.00 0.00 55 1012.8
20260503222117 65 0.0 0.0 0.00 0.00 0.00 67 1015.2
20260503221320 65 0.0 0.0 0.00 0.00 0.00 67 1015.2
20260503220517 65 0.0 0.0 0.00 0.00 0.00 67 1015.2
20260503215717 65 0.0 0.0 0.00 0.00 0.00 67 1015.2
20260503214917 66 0.0 0.0 0.00 0.00 0.00 66 1015.1
20260503214117 66 0.0 0.0 0.00 0.00 0.00 66 1015.3
20260503213318 66 0.0 0.0 0.00 0.00 0.00 67 1015.3
20260503212517 66 0.0 0.0 0.00 0.00 0.00 66 1015.2
20260503211717 66 0.0 0.0 0.00 0.00 0.00 66 1015.2
20260503210912 66 0.0 0.0 0.00 0.00 0.00 66 1015.3
20260503210117 66 0.0 0.0 0.00 0.00 0.00 66 1015.4
20260503205317 66 0.0 0.0 0.00 0.00 0.00 66 1015.3
20260503204517 66 0.0 0.0 0.00 0.00 0.00 68 1015.4